Weather History for Farmington, MO

Change the Weather History Date:

Saturday, November 17, 2012

  Actual Average Record
Temperature  
Mean Temperature 40 °F -  
Max Temperature 57 °F 53 °F 75 °F (2013)
Min Temperature 24 °F 35 °F 12 °F (1997)
Degree Days  
Heating Degree Days 24    
Moisture  
Dew Point 28 °F    
Average Humidity 64    
Maximum Humidity 100    
Minimum Humidity 33    
Precipitation  
Precipitation 0.00 in - - ()
Sea Level Pressure  
Sea Level Pressure 30.44 in    
Wind  
Wind Speed 1 mph (East)    
Max Wind Speed 8 mph    
Max Gust Speed -    
Visibility 9 miles    
Events      
Averages and records for this station are not official NWS values.
T = Trace of Precipitation, MM = Missing Value Source: NWS Daily Summary

Daily Weather History Graph

Daily Weather History Graph

Search for Another Location

Airport:

Trip Planner

Search our weather history database for the weather conditions in past years. The results will help you decide how hot, cold, wet, or windy it might be!

Date:

Astronomy

Nov. 17, 2012 Rise Set
Actual Time 6:44 AM CST 4:48 PM CST
Civil Twilight 6:16 AM CST 5:16 PM CST
Nautical Twilight 5:44 AM CST 5:48 PM CST
Astronomical Twilight 5:13 AM CST 6:19 PM CST
Moon 10:29 AM CST (11/17) 8:58 PM CST (11/17)
Length of Visible Light 11h 00m
Length of Day
10h 04m
Waxing Crescent, 20% of the Moon is Illuminated
Nov 17
Waxing Crescent
Nov 20
First Quarter
Nov 28
Full
Dec 6
Last Quarter
Dec 13
New

Hourly Weather History & Observations

Time (CST) Temp. Windchill Dew Point Humidity Pressure Visibility Wind Dir Wind Speed Gust Speed Precip Events Conditions
12:15 AM 28.4 °F - 26.6 °F 93% 30.46 in 7.0 mi Calm Calm - N/A   Clear
12:35 AM 32.0 °F - 28.4 °F 87% 30.46 in 9.0 mi Calm Calm - N/A   Clear
12:55 AM - - - N/A% 30.45 in - Calm Calm - N/A   Unknown
1:15 AM 28.4 °F - 23.0 °F 80% 30.45 in 5.0 mi Calm Calm - N/A   Clear
1:35 AM 28.4 °F - 21.2 °F 74% 30.45 in 7.0 mi Calm Calm - N/A   Clear
1:55 AM 28.4 °F - 23.0 °F 80% 30.45 in - Calm Calm - N/A   Unknown
2:15 AM 30.2 °F - 24.8 °F 80% - 6.0 mi North - - N/A   Unknown
2:35 AM 28.4 °F - 24.8 °F 86% 30.46 in 4.0 mi Calm Calm - N/A   Unknown
2:55 AM 26.6 °F - 24.8 °F 93% 30.46 in 3.0 mi Calm Calm - N/A   Clear
3:15 AM 26.6 °F - 24.8 °F 93% 30.46 in 3.0 mi Calm Calm - N/A   Clear
3:35 AM 26.6 °F - 24.8 °F 93% 30.46 in 2.5 mi Calm Calm - N/A   Clear
3:55 AM - - - N/A% - - North - - N/A   Unknown
4:15 AM 26.6 °F - 24.8 °F 93% 30.46 in 2.5 mi Calm Calm - N/A   Unknown
4:35 AM - - - N/A% - - North - - N/A   Unknown
4:55 AM - - - N/A% - - North - - N/A   Unknown
5:15 AM - - - N/A% - - North - - N/A   Unknown
5:35 AM - - - N/A% 30.46 in - North - - N/A   Unknown
5:55 AM 24.8 °F - 21.2 °F 86% 30.47 in 3.0 mi Calm Calm - N/A   Unknown
6:15 AM 24.8 °F 19.1 °F 19.4 °F 80% 30.48 in - WNW 4.6 mph - N/A   Unknown
6:35 AM 24.8 °F - 24.8 °F 100% 30.48 in 2.5 mi Calm Calm - N/A   Unknown
6:55 AM - - - N/A% - - North - - N/A   Unknown
7:15 AM - - - N/A% - - North - - N/A   Unknown
7:35 AM - - - N/A% - - North - - N/A   Unknown
7:55 AM - - - N/A% - - North - - N/A   Unknown
8:15 AM 30.2 °F 25.4 °F 28.4 °F 93% 30.49 in 5.0 mi West 4.6 mph - N/A   Unknown
8:35 AM - - - N/A% - - North - - N/A   Unknown
8:55 AM - - - N/A% - - North - - N/A   Unknown
9:15 AM - - - N/A% - - North - - N/A   Unknown
9:35 AM 42.8 °F - 32.0 °F 66% 30.50 in 10.0 mi Calm Calm - N/A   Clear
9:55 AM 46.4 °F 44.3 °F 33.8 °F 62% 30.51 in 10.0 mi South 4.6 mph - N/A   Clear
10:15 AM 46.4 °F 44.3 °F 33.8 °F 62% 30.51 in 10.0 mi South 4.6 mph - N/A   Clear
10:35 AM 48.2 °F - 32.0 °F 54% 30.51 in 10.0 mi SW 3.5 mph - N/A   Clear
10:55 AM 48.2 °F - 30.2 °F 50% 30.50 in 10.0 mi Calm Calm - N/A   Clear
11:15 AM 50.0 °F - 30.2 °F 47% 30.50 in 10.0 mi Calm Calm - N/A   Clear
11:35 AM 51.8 °F - 30.2 °F 44% 30.49 in 10.0 mi Calm Calm - N/A   Clear
11:55 AM 51.8 °F - 30.2 °F 44% 30.48 in 10.0 mi Calm Calm - N/A   Clear
12:15 PM 53.6 °F - 30.2 °F 41% 30.47 in 10.0 mi Calm Calm - N/A   Clear
12:35 PM 53.6 °F - 30.2 °F 41% 30.46 in 10.0 mi Calm Calm - N/A   Clear
12:55 PM 55.4 °F - 28.4 °F 36% 30.45 in 10.0 mi Calm Calm - N/A   Clear
1:15 PM 55.4 °F - 30.2 °F 38% 30.44 in 10.0 mi Calm Calm - N/A   Clear
1:35 PM 55.4 °F - 28.4 °F 36% 30.44 in 10.0 mi East 4.6 mph - N/A   Clear
1:55 PM 57.2 °F - 28.4 °F 33% 30.43 in 10.0 mi Calm Calm - N/A   Clear
2:15 PM 57.2 °F - 28.4 °F 33% 30.42 in 10.0 mi East 6.9 mph - N/A   Clear
2:35 PM 57.2 °F - 30.2 °F 36% 30.41 in 10.0 mi East 8.1 mph - N/A   Clear
2:55 PM 57.2 °F - 30.2 °F 36% 30.41 in 10.0 mi East 6.9 mph - N/A   Clear
3:15 PM 57.2 °F - 30.2 °F 36% 30.41 in 10.0 mi East 5.8 mph - N/A   Clear
3:35 PM 57.2 °F - 30.2 °F 36% 30.41 in 10.0 mi East 5.8 mph - N/A   Clear
3:55 PM 55.4 °F - 30.2 °F 38% 30.41 in 10.0 mi East 5.8 mph - N/A   Clear
4:15 PM 53.6 °F - 30.2 °F 41% 30.41 in 10.0 mi East 3.5 mph - N/A   Clear
4:35 PM 51.8 °F - 30.2 °F 44% 30.41 in 10.0 mi East 5.8 mph - N/A   Clear
4:55 PM 48.2 °F - 28.4 °F 46% 30.40 in 10.0 mi East 6.9 mph - N/A   Clear
5:15 PM 46.4 °F 42.9 °F 28.4 °F 50% 30.40 in 10.0 mi East 6.9 mph - N/A   Clear
5:35 PM 46.4 °F 42.9 °F 28.4 °F 50% 30.40 in 10.0 mi East 6.9 mph - N/A   Clear
5:55 PM 44.6 °F 41.4 °F 28.4 °F 53% 30.40 in 10.0 mi East 5.8 mph - N/A   Clear
6:15 PM 44.6 °F 42.2 °F 28.4 °F 53% 30.40 in 10.0 mi East 4.6 mph - N/A   Clear
6:35 PM 42.8 °F 40.1 °F 28.4 °F 57% 30.40 in 10.0 mi East 4.6 mph - N/A   Clear
6:55 PM 44.6 °F - 28.4 °F 53% 30.40 in 10.0 mi Calm Calm - N/A   Clear
7:15 PM 41.0 °F - 28.4 °F 61% 30.40 in 10.0 mi Calm Calm - N/A   Clear
7:35 PM 41.0 °F - 28.4 °F 61% 30.40 in 10.0 mi Calm Calm - N/A   Clear
7:55 PM 37.4 °F - 28.4 °F 70% 30.41 in 9.0 mi Calm Calm - N/A   Clear
8:15 PM 37.4 °F - 28.4 °F 70% 30.41 in 10.0 mi Calm Calm - N/A   Clear
8:35 PM 37.4 °F - 26.6 °F 65% 30.42 in 10.0 mi Calm Calm - N/A   Clear
8:55 PM 35.6 °F - 28.4 °F 75% 30.42 in 10.0 mi Calm Calm - N/A   Clear
9:15 PM 35.6 °F - 28.4 °F 75% 30.43 in 10.0 mi Calm Calm - N/A   Clear
9:35 PM 33.8 °F - 28.4 °F 81% 30.43 in 10.0 mi Calm Calm - N/A   Clear
9:55 PM 33.8 °F - 28.4 °F 81% 30.43 in 10.0 mi Calm Calm - N/A   Clear
10:15 PM 32.0 °F - 28.4 °F 87% 30.42 in 10.0 mi Calm Calm - N/A   Clear
10:35 PM 33.8 °F - 26.6 °F 75% 30.42 in 10.0 mi Calm Calm - N/A   Clear
10:55 PM 33.8 °F - 28.4 °F 81% 30.42 in 10.0 mi Calm Calm - N/A   Clear
11:15 PM 30.2 °F - 26.6 °F 86% 30.42 in 10.0 mi Calm Calm - N/A   Clear
11:35 PM 32.0 °F - 26.6 °F 80% 30.41 in 10.0 mi Calm Calm - N/A   Clear
11:55 PM 30.2 °F - 24.8 °F 80% 30.41 in 10.0 mi Calm Calm - N/A   Clear